Change the Weather History Date:

Saturday, January 25, 2014

  Actual Average Record
Temperature  
Mean Temperature 18 °F -  
Max Temperature 28 °F 30 °F 42 °F (2002)
Min Temperature 8 °F 19 °F -2 °F (2004)
Degree Days  
Heating Degree Days 47    
Moisture  
Dew Point 17 °F    
Average Humidity 80    
Maximum Humidity 93    
Minimum Humidity 42    
Precipitation  
Precipitation 0.00 in 0.07 in - ()
Sea Level Pressure  
Sea Level Pressure 29.40 in    
Wind  
Wind Speed 30 mph ()    
Max Wind Speed 43 mph    
Max Gust Speed 50 mph    
Visibility 3.3 miles    
Events Snow    
Averages and records for this station are not official NWS values.
T = Trace of Precipitation, MM = Missing Value Source: Averaged Metar Reports

Daily Weather History Graph

Daily Weather History Graph

Search for Another Location

Airport or City:

Trip Planner

Search our weather history database for the weather conditions in past years. The results will help you decide how hot, cold, wet, or windy it might be!

Date:

Astronomy

Jan. 25, 2014 Rise Set
Actual Time 7:40 AM EST 5:19 PM EST
Civil Twilight 7:09 AM EST 5:50 PM EST
Nautical Twilight 6:35 AM EST 6:25 PM EST
Astronomical Twilight 6:01 AM EST 6:59 PM EST
Moon 2:10 AM EST (1/25) 12:18 PM EST (1/25)
Length of Visible Light 10h 40m
Length of Day
9h 38m
Waning Crescent, 34% of the Moon is Illuminated
Jan 25
Waning Crescent
Jan 30
New
Feb 6
First Quarter
Feb 14
Full
Feb 22
Last Quarter

Hourly Weather History & Observations

Time (EST) Temp. Windchill Dew Point Humidity Pressure Visibility Wind Dir Wind Speed Gust Speed Precip Events Conditions
12:00 AM 21.2 °F 1.9 °F 15.8 °F 80% 29.61 in 1.8 mi SW 34.5 mph 49.5 mph N/A Snow Light Snow
12:06 AM 21.2 °F 1.9 °F 15.8 °F 80% 29.60 in 1.8 mi SW 34.5 mph 49.5 mph N/A Snow Light Snow
12:13 AM 21.2 °F 1.7 °F 15.8 °F 80% 29.60 in 1.8 mi SW 35.7 mph 44.9 mph N/A Snow Light Snow
12:14 AM 21.2 °F 1.4 °F 15.8 °F 80% 29.60 in 1.8 mi SW 36.8 mph 44.9 mph N/A Snow Light Snow
12:15 AM 21.2 °F 1.2 °F 15.8 °F 80% 29.60 in 1.5 mi SSW 38.0 mph 46.0 mph N/A Snow Light Snow
12:27 AM 21.2 °F 1.7 °F 15.8 °F 80% 29.59 in 1.5 mi SSW 35.7 mph 41.4 mph N/A Snow Light Snow
12:28 AM 21.2 °F 1.7 °F 15.8 °F 80% 29.59 in 1.5 mi SSW 35.7 mph 41.4 mph N/A Snow Light Snow
12:30 AM 21.2 °F 2.4 °F 17.6 °F 86% 29.59 in 1.5 mi SW 32.2 mph 41.4 mph N/A Snow Light Snow
12:31 AM 21.2 °F 2.2 °F 15.8 °F 80% 29.58 in 1.5 mi SW 33.4 mph 41.4 mph N/A Snow Light Snow
12:42 AM 21.2 °F 1.9 °F 15.8 °F 80% 29.57 in 1.5 mi SW 34.5 mph 43.7 mph N/A Snow Light Snow
12:53 AM 21.2 °F 1.4 °F 17.6 °F 86% 29.56 in 2.0 mi SW 36.8 mph 48.3 mph N/A Snow Light Snow
12:57 AM 21.2 °F 2.2 °F 15.8 °F 80% 29.56 in 2.5 mi SSW 33.4 mph 47.2 mph N/A Snow Light Snow
1:00 AM 21 °F - 16 °F 75% 29.56 in 2 mi SSW 35.7 mph - - Snow Light Snow
1:00 AM 21.2 °F 1.7 °F 15.8 °F 80% 29.56 in 2.5 mi SSW 35.7 mph 44.9 mph N/A Snow Light Snow
1:04 AM 21.2 °F 2.2 °F 17.6 °F 86% 29.55 in 2.5 mi SW 33.4 mph 44.9 mph N/A Snow Light Snow
1:05 AM 21.2 °F 2.4 °F 17.6 °F 86% 29.55 in 2.5 mi SSW 32.2 mph 44.9 mph N/A Snow Light Snow
1:11 AM 21.2 °F 1.2 °F 15.8 °F 80% 29.55 in 2.5 mi SSW 38.0 mph 46.0 mph N/A Snow Light Snow
1:14 AM 21.2 °F 1.4 °F 15.8 °F 80% 29.54 in 1.8 mi SSW 36.8 mph 46.0 mph N/A Snow Light Snow
1:21 AM 21.2 °F 1.9 °F 17.6 °F 86% 29.54 in 1.5 mi SW 34.5 mph 47.2 mph N/A Snow Light Snow
1:25 AM 21.2 °F 1.2 °F 15.8 °F 80% 29.54 in 1.5 mi SW 38.0 mph 47.2 mph N/A Snow Light Snow
1:29 AM 21.2 °F 0.9 °F 15.8 °F 80% 29.53 in 1.5 mi SSW 39.1 mph 44.9 mph N/A Snow Light Snow
1:34 AM 21.2 °F 1.7 °F 17.6 °F 86% 29.53 in 1.5 mi SW 35.7 mph 48.3 mph N/A Snow Light Snow
1:36 AM 21.2 °F 1.7 °F 17.6 °F 86% 29.52 in 1.5 mi SSW 35.7 mph 48.3 mph N/A Snow Light Snow
1:38 AM 21.2 °F 1.7 °F 15.8 °F 80% 29.53 in 1.5 mi SW 35.7 mph 48.3 mph N/A Snow Light Snow
1:41 AM 21.2 °F 1.7 °F 17.6 °F 86% 29.52 in 1.5 mi SW 35.7 mph 43.7 mph N/A Snow Light Snow
1:45 AM 21.2 °F 1.7 °F 17.6 °F 86% 29.52 in 1.5 mi SW 35.7 mph 42.6 mph N/A Snow Light Snow
1:49 AM 21.2 °F 1.4 °F 17.6 °F 86% 29.52 in 1.5 mi SW 36.8 mph 48.3 mph N/A Snow Light Snow
1:50 AM 21.2 °F 1.4 °F 17.6 °F 86% 29.52 in 1.5 mi SW 36.8 mph 48.3 mph N/A Snow Light Snow
1:54 AM 21.2 °F 1.2 °F 17.6 °F 86% 29.51 in 1.5 mi SW 38.0 mph 48.3 mph N/A Snow Light Snow
1:59 AM 21.2 °F 1.7 °F 17.6 °F 86% 29.51 in 1.8 mi SW 35.7 mph 44.9 mph N/A Snow Light Snow
2:00 AM 21.2 °F 0.9 °F 17.6 °F 86% 29.51 in 1.8 mi SW 39.1 mph 46.0 mph N/A Snow Light Snow
2:06 AM 21.2 °F 1.9 °F 17.6 °F 86% 29.51 in 1.5 mi SSW 34.5 mph 46.0 mph N/A Snow Light Snow
2:07 AM 21.2 °F 1.9 °F 17.6 °F 86% 29.50 in 1.5 mi SSW 34.5 mph 46.0 mph N/A Snow Light Snow
2:09 AM 21.2 °F 0.9 °F 15.8 °F 80% 29.50 in 1.5 mi SSW 39.1 mph 49.5 mph N/A Snow Light Snow
2:16 AM 21.2 °F 1.4 °F 15.8 °F 80% 29.49 in 1.5 mi SW 36.8 mph 49.5 mph N/A Snow Light Snow
2:19 AM 21.2 °F 2.4 °F 19.4 °F 93% 29.49 in 1.8 mi SW 32.2 mph 46.0 mph N/A Snow Light Snow
2:36 AM 23.0 °F 4.1 °F 17.6 °F 80% 29.48 in 2.0 mi SSW 35.7 mph 43.7 mph N/A Snow Light Snow
3:00 AM 23.0 °F 3.9 °F 17.6 °F 80% 29.47 in 2.2 mi SW 36.8 mph 46.0 mph N/A Snow Light Snow
3:21 AM 23.0 °F 3.9 °F 17.6 °F 80% 29.45 in 1.8 mi SW 36.8 mph 43.7 mph N/A Snow Light Snow
4:00 AM 23.0 °F 3.7 °F 19.4 °F 86% 29.42 in 1.0 mi SSW 38.0 mph 47.2 mph N/A Snow Light Snow
5:00 AM 23.0 °F 4.4 °F 19.4 °F 86% 29.39 in 1.2 mi SW 34.5 mph 44.9 mph N/A Snow Light Snow
5:24 AM 23.0 °F 2.8 °F 19.4 °F 86% 29.37 in 1.2 mi SSW 42.6 mph - N/A Snow Light Snow
5:25 AM 23.0 °F 3.2 °F 19.4 °F 86% 29.37 in 1.2 mi SW 40.3 mph 47.2 mph N/A Snow Light Snow
5:28 AM 23.0 °F 3.9 °F 19.4 °F 86% 29.37 in 1.2 mi SW 36.8 mph 47.2 mph N/A Snow Light Snow
5:29 AM 23.0 °F 4.1 °F 19.4 °F 86% 29.37 in 1.2 mi SW 35.7 mph 47.2 mph N/A Snow Light Snow
5:32 AM 23.0 °F 3.9 °F 19.4 °F 86% 29.37 in 1.2 mi SW 36.8 mph 47.2 mph N/A Snow Light Snow
5:33 AM 23.0 °F 3.9 °F 19.4 °F 86% 29.37 in 1.2 mi SW 36.8 mph 47.2 mph N/A Snow Light Snow
5:42 AM 23.0 °F 3.2 °F 19.4 °F 86% 29.36 in 0.8 mi SSW 40.3 mph 48.3 mph N/A Snow Light Snow
6:00 AM 23.0 °F 4.4 °F 19.4 °F 86% 29.35 in 0.8 mi SW 34.5 mph 44.9 mph N/A Snow Light Snow
6:13 AM 23.0 °F 3.9 °F 19.4 °F 86% 29.34 in 1.0 mi SSW 36.8 mph 46.0 mph N/A Snow Light Snow
7:00 AM 24 °F - 21 °F 82% 29.33 in 1 mi SW 36.8 mph - - Snow Light Snow
7:00 AM 23.0 °F 4.4 °F 21.2 °F 93% 29.33 in 1.0 mi SW 34.5 mph 48.3 mph N/A Snow Light Snow
7:06 AM 23.0 °F 3.4 °F 19.4 °F 86% 29.32 in 1.0 mi SSW 39.1 mph 48.3 mph N/A Snow Light Snow
7:07 AM 23.0 °F 3.2 °F 19.4 °F 86% 29.32 in 1.0 mi SW 40.3 mph 48.3 mph N/A Snow Light Snow
7:10 AM 23.0 °F 4.4 °F 21.2 °F 93% 29.33 in 1.0 mi SW 34.5 mph 48.3 mph N/A Snow Light Snow
7:11 AM 24.8 °F 7.3 °F 21.2 °F 86% 29.33 in 1.0 mi SW 32.2 mph 48.3 mph N/A Snow Light Snow
7:12 AM 24.8 °F 6.6 °F 21.2 °F 86% 29.32 in 1.0 mi SSW 35.7 mph 48.3 mph N/A Snow Light Snow
7:13 AM 24.8 °F 5.7 °F 21.2 °F 86% 29.32 in 1.0 mi SSW 40.3 mph 48.3 mph N/A Snow Light Snow
7:14 AM 23.0 °F 3.7 °F 21.2 °F 93% 29.32 in 1.0 mi SW 38.0 mph 46.0 mph N/A Snow Light Snow
7:15 AM 23.0 °F 3.9 °F 21.2 °F 93% 29.32 in 1.0 mi SW 36.8 mph 46.0 mph N/A Snow Light Snow
7:51 AM 24.8 °F 6.0 °F 19.4 °F 80% 29.30 in 2.0 mi SW 39.1 mph 47.2 mph N/A Snow Light Snow
8:00 AM 24.8 °F 6.6 °F 19.4 °F 80% 29.30 in 2.5 mi SW 35.7 mph 47.2 mph N/A Snow Light Snow
8:33 AM 24.8 °F 6.8 °F 21.2 °F 86% 29.29 in 3.0 mi SW 34.5 mph 46.0 mph N/A Snow Light Snow
9:00 AM 24.8 °F 6.6 °F 21.2 °F 86% 29.28 in 3.0 mi SW 35.7 mph 43.7 mph N/A Snow Light Snow
10:00 AM 24.8 °F 6.6 °F 21.2 °F 86% 29.27 in 3.0 mi SW 35.7 mph 46.0 mph N/A Snow Light Snow
11:00 AM 26.6 °F 9.8 °F 23.0 °F 86% 29.25 in 3.0 mi SW 32.2 mph 39.1 mph N/A Snow Light Snow
11:42 AM 26.6 °F 10.3 °F 23.0 °F 86% 29.24 in 6.0 mi SW 29.9 mph 36.8 mph N/A Snow Light Snow
11:56 AM 26.6 °F 10.3 °F 23.0 °F 86% 29.23 in 5.0 mi SW 29.9 mph 38.0 mph N/A Snow Light Snow
12:00 PM 26.6 °F 11.1 °F 23.0 °F 86% 29.23 in 4.0 mi SW 26.5 mph 38.0 mph N/A Snow Light Snow
12:09 PM 26.6 °F 11.4 °F 23.0 °F 86% 29.23 in 2.5 mi SW 25.3 mph 32.2 mph N/A Snow Light Snow
12:18 PM 26.6 °F 12.0 °F 23.0 °F 86% 29.23 in 1.8 mi WSW 23.0 mph 29.9 mph N/A Snow Light Snow
12:24 PM 26.6 °F 12.4 °F 23.0 °F 86% 29.23 in 2.0 mi WSW 21.9 mph 27.6 mph N/A Snow Light Snow
12:30 PM 26.6 °F 12.7 °F 23.0 °F 86% 29.23 in 3.0 mi WSW 20.7 mph - N/A Snow Light Snow
12:44 PM 28.4 °F 15.1 °F 23.0 °F 80% 29.22 in 7.0 mi WSW 20.7 mph - N/A Snow Light Snow
12:53 PM 28.4 °F 15.4 °F 23.0 °F 80% 29.22 in 9.0 mi WSW 19.6 mph - N/A Snow Light Snow
12:55 PM 26.6 °F 13.1 °F 23.0 °F 86% 29.22 in 9.0 mi WSW 19.6 mph - N/A Snow Light Snow
1:00 PM 27 °F - 22 °F 74% 29.23 in 3 mi WSW 20.7 mph - - Snow Light Snow
1:00 PM 26.6 °F 12.0 °F 21.2 °F 80% 29.23 in 3.0 mi West 23.0 mph 28.8 mph N/A Snow Light Snow
1:01 PM 26.6 °F 12.7 °F 21.2 °F 80% 29.23 in 2.5 mi WNW 20.7 mph 28.8 mph N/A Snow Light Snow
1:02 PM 24.8 °F 11.9 °F 21.2 °F 86% 29.23 in 1.8 mi WNW 16.1 mph 28.8 mph N/A Snow Light Snow
1:07 PM 23.0 °F 10.6 °F 19.4 °F 86% 29.23 in 0.8 mi NW 13.8 mph 28.8 mph N/A Snow Light Snow
1:12 PM 23.0 °F 11.7 °F 19.4 °F 86% 29.23 in 1.0 mi NW 11.5 mph 19.6 mph N/A Snow Light Snow
1:15 PM 23.0 °F 10.6 °F 19.4 °F 86% 29.23 in 2.0 mi WNW 13.8 mph - N/A Snow Light Snow
1:17 PM 24.8 °F 13.4 °F 17.6 °F 74% 29.23 in 3.0 mi WNW 12.7 mph 19.6 mph N/A Snow Light Snow
1:19 PM 24.8 °F 12.9 °F 17.6 °F 74% 29.23 in 5.0 mi WNW 13.8 mph - N/A Snow Light Snow
1:20 PM 24.8 °F 12.9 °F 17.6 °F 74% 29.23 in 7.0 mi WNW 13.8 mph - N/A Snow Light Snow
1:28 PM 24.8 °F 11.1 °F 15.8 °F 69% 29.23 in 9.0 mi WNW 18.4 mph - N/A   Overcast
2:00 PM 24.8 °F 10.3 °F 12.2 °F 59% 29.23 in 9.0 mi NW 20.7 mph 27.6 mph N/A   Overcast
3:00 PM 23.0 °F 7.2 °F 10.4 °F 59% 29.26 in 9.0 mi NW 23.0 mph - N/A   Overcast
3:37 PM 21.2 °F 5.2 °F 14.0 °F 74% 29.29 in 4.0 mi NW 21.9 mph 27.6 mph N/A Snow Light Snow
3:41 PM 21.2 °F 6.8 °F 15.8 °F 80% 29.29 in 2.5 mi NW 17.3 mph 27.6 mph N/A Snow Light Snow
3:46 PM 21.2 °F 6.8 °F 14.0 °F 74% 29.30 in 3.0 mi NW 17.3 mph 25.3 mph N/A Snow Light Snow
3:50 PM 21.2 °F 7.3 °F 14.0 °F 74% 29.30 in 8.0 mi NW 16.1 mph 25.3 mph N/A Snow Light Snow
3:55 PM 21.2 °F 7.8 °F 14.0 °F 74% 29.30 in 9.0 mi NW 15.0 mph 21.9 mph N/A   Overcast
3:56 PM 21.2 °F 6.8 °F 14.0 °F 74% 29.30 in 9.0 mi NW 17.3 mph 25.3 mph N/A   Overcast
3:57 PM 21.2 °F 5.6 °F 14.0 °F 74% 29.30 in 9.0 mi NW 20.7 mph - N/A Snow Light Snow
4:00 PM 21.2 °F 6.4 °F 14.0 °F 74% 29.31 in 9.0 mi WNW 18.4 mph 26.5 mph N/A Snow Light Snow
4:04 PM 21.2 °F 7.3 °F 12.2 °F 68% 29.32 in 9.0 mi NW 16.1 mph 26.5 mph N/A Snow Light Snow
4:39 PM 19.4 °F 2.5 °F 5.0 °F 54% 29.35 in 9.0 mi NNW 23.0 mph 31.1 mph N/A   Mostly Cloudy
5:00 PM 17.6 °F 1.3 °F 3.2 °F 53% 29.38 in 9.0 mi NW 19.6 mph 27.6 mph N/A   Mostly Cloudy
6:00 PM 14.0 °F -3.0 °F -0.4 °F 53% 29.45 in 9.0 mi NW 18.4 mph 32.2 mph N/A   Scattered Clouds
7:00 PM 12 °F - -1 °F 42% 29.51 in 10 mi NW 12.7 mph - -  
7:00 PM 12.2 °F -3.7 °F -0.4 °F 57% 29.51 in 9.0 mi NW 15.0 mph - N/A   Clear
8:00 PM 12.2 °F -4.8 °F -0.4 °F 57% 29.55 in 9.0 mi West 17.3 mph 24.2 mph N/A   Clear
9:00 PM 10.4 °F -7.7 °F -2.2 °F 57% 29.59 in 9.0 mi NW 18.4 mph - N/A   Clear
10:00 PM 8.6 °F -8.9 °F -4.0 °F 57% 29.62 in 9.0 mi WNW 16.1 mph - N/A   Clear
11:00 PM 8.6 °F -7.7 °F -4.0 °F 57% 29.62 in 9.0 mi WNW 13.8 mph 20.7 mph N/A   Clear